When you browse on this site, cookies collect data to enhance your experience and personalize the content and advertising you see.
Visit our Privacy Policy to learn more. By continuing to use the site, you agree to this use of cookies and data.

Stündliche Wetter Tulancingo

Heute, 7 August, Freitag

Zeit Temperatur Niederschläge Wind Luftdruck Luftfeuchtigkeit
00:00 +14°C° 0 mm 1 m/S 587 mmHg 95%
01:00 +15°C° 0 mm 1 m/S 587 mmHg 95%
02:00 +15°C° 0 mm 1 m/S 587 mmHg 95%
03:00 +15°C° 0 mm 1 m/S 587 mmHg 94%
04:00 +14°C° 0 mm 1 m/S 587 mmHg 93%
05:00 +14°C° 0 mm 1 m/S 587 mmHg 92%
06:00 +15°C° 0 mm 1 m/S 587 mmHg 88%
07:00 +16°C° 0 mm 1 m/S 588 mmHg 84%
08:00 +18°C° 0 mm 2 m/S 589 mmHg 79%
09:00 +19°C° 0.2 mm 2 m/S 589 mmHg 74%
10:00 +20°C° 0.2 mm 3 m/S 590 mmHg 69%
11:00 +21°C° 0.2 mm 4 m/S 590 mmHg 64%
12:00 +21°C° 0.2 mm 4 m/S 590 mmHg 64%
13:00 +21°C° 0.2 mm 4 m/S 589 mmHg 65%
14:00 +21°C° 0.2 mm 5 m/S 588 mmHg 65%
15:00 +20°C° 0.1 mm 4 m/S 588 mmHg 70%
16:00 +19°C° 0.1 mm 4 m/S 587 mmHg 76%
17:00 +18°C° 0.1 mm 3 m/S 587 mmHg 81%
18:00 +17°C° 0 mm 3 m/S 587 mmHg 86%
19:00 +16°C° 0 mm 2 m/S 588 mmHg 91%
20:00 +15°C° 0 mm 1 m/S 588 mmHg 96%
21:00 +15°C° 0 mm 1 m/S 588 mmHg 94%
22:00 +15°C° 0 mm 1 m/S 588 mmHg 93%
23:00 +15°C° 0 mm 1 m/S 588 mmHg 91%

Morgen, 8 August, Samstag

Zeit Temperatur Niederschläge Wind Luftdruck Luftfeuchtigkeit
00:00 +14°C° 0 mm 1 m/S 588 mmHg 92%
01:00 +14°C° 0 mm 1 m/S 587 mmHg 93%
02:00 +13°C° 0 mm 1 m/S 587 mmHg 93%
03:00 +14°C° 0 mm 1 m/S 587 mmHg 93%
04:00 +14°C° 0 mm 1 m/S 587 mmHg 93%
05:00 +14°C° 0 mm 1 m/S 588 mmHg 93%
06:00 +15°C° 0.1 mm 1 m/S 588 mmHg 91%
07:00 +15°C° 0.1 mm 1 m/S 588 mmHg 90%
08:00 +16°C° 0.1 mm 2 m/S 589 mmHg 88%
09:00 +17°C° 0.4 mm 2 m/S 589 mmHg 85%
10:00 +18°C° 0.4 mm 3 m/S 589 mmHg 82%
11:00 +19°C° 0.4 mm 4 m/S 590 mmHg 80%
12:00 +18°C° 0.7 mm 3 m/S 589 mmHg 83%
13:00 +18°C° 0.7 mm 3 m/S 588 mmHg 87%
14:00 +17°C° 0.7 mm 3 m/S 587 mmHg 90%
15:00 +17°C° 0.2 mm 3 m/S 587 mmHg 91%
16:00 +16°C° 0.2 mm 3 m/S 587 mmHg 92%
17:00 +16°C° 0.2 mm 3 m/S 587 mmHg 94%
18:00 +14°C° 0.1 mm 3 m/S 588 mmHg 95%
19:00 +15°C° 0.1 mm 2 m/S 588 mmHg 96%
20:00 +15°C° 0.1 mm 2 m/S 588 mmHg 97%
21:00 +15°C° 0.1 mm 2 m/S 588 mmHg 97%
22:00 +15°C° 0.1 mm 2 m/S 589 mmHg 97%
23:00 +14°C° 0.1 mm 2 m/S 589 mmHg 97%

übermorgen, 9 August, Sonntag

Zeit Temperatur Niederschläge Wind Luftdruck Luftfeuchtigkeit
00:00 +14°C° 0 mm 1 m/S 588 mmHg 97%
01:00 +14°C° 0 mm 1 m/S 588 mmHg 97%
02:00 +14°C° 0 mm 1 m/S 588 mmHg 97%
03:00 +14°C° 0.1 mm 1 m/S 588 mmHg 97%
04:00 +14°C° 0.1 mm 1 m/S 588 mmHg 97%
05:00 +14°C° 0.1 mm 1 m/S 588 mmHg 97%
06:00 +14°C° 0.1 mm 1 m/S 588 mmHg 94%
07:00 +15°C° 0.1 mm 1 m/S 589 mmHg 92%
08:00 +16°C° 0.1 mm 1 m/S 590 mmHg 89%
09:00 +17°C° 0.1 mm 2 m/S 590 mmHg 85%
10:00 +18°C° 0.1 mm 2 m/S 590 mmHg 81%
11:00 +19°C° 0.1 mm 2 m/S 590 mmHg 77%
12:00 +18°C° 0.6 mm 3 m/S 590 mmHg 80%
13:00 +18°C° 0.6 mm 3 m/S 589 mmHg 84%
14:00 +18°C° 0.6 mm 3 m/S 588 mmHg 88%
15:00 +17°C° 0.5 mm 3 m/S 588 mmHg 90%
16:00 +16°C° 0.5 mm 2 m/S 587 mmHg 93%
17:00 +16°C° 0.5 mm 2 m/S 587 mmHg 95%
18:00 +16°C° 1 mm 2 m/S 587 mmHg 96%
19:00 +15°C° 1 mm 2 m/S 588 mmHg 97%
20:00 +15°C° 1 mm 1 m/S 588 mmHg 98%
21:00 +15°C° 1.4 mm 1 m/S 588 mmHg 98%
22:00 +15°C° 1.4 mm 1 m/S 588 mmHg 98%
23:00 +15°C° 1.4 mm 1 m/S 588 mmHg 98%

10 August, Montag

Zeit Temperatur Niederschläge Wind Luftdruck Luftfeuchtigkeit
00:00 +14°C° 0.1 mm 1 m/S 588 mmHg 98%
01:00 +14°C° 0.1 mm 1 m/S 588 mmHg 97%
02:00 +14°C° 0.1 mm 1 m/S 587 mmHg 97%
03:00 +14°C° 0 mm 1 m/S 587 mmHg 97%
04:00 +14°C° 0 mm 1 m/S 587 mmHg 97%
05:00 +13°C° 0 mm 1 m/S 587 mmHg 97%
06:00 +14°C° 0 mm 1 m/S 588 mmHg 92%
07:00 +15°C° 0 mm 1 m/S 588 mmHg 88%
08:00 +16°C° 0 mm 1 m/S 589 mmHg 84%
09:00 +19°C° 0 mm 1 m/S 590 mmHg 78%
10:00 +19°C° 0 mm 2 m/S 590 mmHg 72%
11:00 +21°C° 0 mm 2 m/S 591 mmHg 66%
12:00 +20°C° 0.5 mm 3 m/S 590 mmHg 71%
13:00 +20°C° 0.5 mm 3 m/S 589 mmHg 75%
14:00 +19°C° 0.5 mm 3 m/S 588 mmHg 80%
15:00 +18°C° 0.9 mm 3 m/S 587 mmHg 85%
16:00 +17°C° 0.9 mm 3 m/S 587 mmHg 90%
17:00 +16°C° 0.9 mm 2 m/S 586 mmHg 95%
18:00 +16°C° 0.2 mm 2 m/S 587 mmHg 96%
19:00 +15°C° 0.2 mm 2 m/S 587 mmHg 96%
20:00 +15°C° 0.2 mm 2 m/S 587 mmHg 96%
21:00 +15°C° 0.1 mm 1 m/S 587 mmHg 97%
22:00 +14°C° 0.1 mm 1 m/S 587 mmHg 97%
23:00 +14°C° 0.1 mm 1 m/S 587 mmHg 97%

11 August, Dienstag

Zeit Temperatur Niederschläge Wind Luftdruck Luftfeuchtigkeit
00:00 +14°C° 0 mm 1 m/S 587 mmHg 97%
01:00 +14°C° 0 mm 1 m/S 587 mmHg 96%
02:00 +14°C° 0 mm 1 m/S 586 mmHg 96%
03:00 +12°C° 0 mm 0 m/S 586 mmHg 95%
04:00 +12°C° 0 mm 0 m/S 586 mmHg 95%
05:00 +11°C° 0 mm 0 m/S 585 mmHg 94%
06:00 +13°C° 0 mm 0 m/S 587 mmHg 86%
07:00 +15°C° 0 mm 0 m/S 588 mmHg 79%
08:00 +19°C° 0 mm 1 m/S 589 mmHg 71%
09:00 +20°C° 0 mm 1 m/S 589 mmHg 68%
10:00 +20°C° 0 mm 2 m/S 589 mmHg 64%
11:00 +22°C° 0 mm 3 m/S 590 mmHg 61%
12:00 +21°C° 0.9 mm 3 m/S 589 mmHg 70%
13:00 +19°C° 0.9 mm 3 m/S 587 mmHg 79%
14:00 +18°C° 0.9 mm 3 m/S 586 mmHg 88%
15:00 +18°C° 0.5 mm 3 m/S 586 mmHg 90%
16:00 +17°C° 0.5 mm 3 m/S 586 mmHg 92%
17:00 +16°C° 0.5 mm 3 m/S 586 mmHg 94%
18:00 +16°C° 0.3 mm 2 m/S 586 mmHg 95%
19:00 +16°C° 0.3 mm 2 m/S 586 mmHg 96%
20:00 +15°C° 0.3 mm 2 m/S 587 mmHg 97%
21:00 +15°C° 0.1 mm 2 m/S 587 mmHg 97%
22:00 +14°C° 0.1 mm 1 m/S 587 mmHg 97%
23:00 +14°C° 0.1 mm 1 m/S 586 mmHg 97%

12 August, Mittwoch

Zeit Temperatur Niederschläge Wind Luftdruck Luftfeuchtigkeit
00:00 +14°C° 0 mm 1 m/S 586 mmHg 97%
01:00 +14°C° 0 mm 1 m/S 586 mmHg 96%
02:00 +13°C° 0 mm 0 m/S 586 mmHg 95%
03:00 +12°C° 0 mm 0 m/S 586 mmHg 94%
04:00 +12°C° 0 mm 0 m/S 586 mmHg 94%
05:00 +12°C° 0 mm 0 m/S 586 mmHg 93%
06:00 +13°C° 0 mm 0 m/S 587 mmHg 88%
07:00 +15°C° 0 mm 0 m/S 587 mmHg 83%
08:00 +16°C° 0 mm 0 m/S 588 mmHg 78%
09:00 +19°C° 0 mm 1 m/S 589 mmHg 71%
10:00 +20°C° 0 mm 2 m/S 589 mmHg 64%
11:00 +22°C° 0 mm 3 m/S 590 mmHg 57%
12:00 +21°C° 0.8 mm 3 m/S 589 mmHg 66%
13:00 +20°C° 0.8 mm 3 m/S 588 mmHg 75%
14:00 +19°C° 0.8 mm 3 m/S 587 mmHg 84%
15:00 +18°C° 0.5 mm 3 m/S 586 mmHg 86%
16:00 +17°C° 0.5 mm 3 m/S 586 mmHg 88%
17:00 +16°C° 0.5 mm 3 m/S 586 mmHg 90%
18:00 +16°C° 0 mm 2 m/S 586 mmHg 93%
19:00 +15°C° 0 mm 2 m/S 586 mmHg 95%
20:00 +14°C° 0 mm 1 m/S 587 mmHg 98%
21:00 +14°C° 0 mm 1 m/S 587 mmHg 97%
22:00 +14°C° 0 mm 1 m/S 587 mmHg 96%
23:00 +13°C° 0 mm 1 m/S 587 mmHg 95%
Mehr zeigen